Year,Month,Day,Hour,Minute,Value (Times are PST for temperature in C)
2016,11,21,00,00,8.80
2016,11,21,00,01,8.70
2016,11,21,00,02,8.60
2016,11,21,00,03,8.40
2016,11,21,00,04,8.20
2016,11,21,00,05,8.00
2016,11,21,00,06,8.00
2016,11,21,00,07,7.90
2016,11,21,00,08,7.90
2016,11,21,00,09,7.90
2016,11,21,00,10,7.90
2016,11,21,00,11,7.80
2016,11,21,00,12,7.70
2016,11,21,00,13,7.60
2016,11,21,00,14,7.60
2016,11,21,00,15,7.60
2016,11,21,00,16,7.50
2016,11,21,00,17,7.50
2016,11,21,00,18,7.40
2016,11,21,00,19,7.40
2016,11,21,00,20,7.40
2016,11,21,00,21,7.50
2016,11,21,00,22,7.70
2016,11,21,00,23,8.00
2016,11,21,00,24,8.40
2016,11,21,00,25,8.70
2016,11,21,00,26,8.80
2016,11,21,00,27,8.80
2016,11,21,00,28,8.70
2016,11,21,00,29,8.60
2016,11,21,00,30,8.40
2016,11,21,00,31,8.20
2016,11,21,00,32,8.10
2016,11,21,00,33,8.00
2016,11,21,00,34,7.90
2016,11,21,00,35,7.80
2016,11,21,00,36,7.70
2016,11,21,00,37,7.70
2016,11,21,00,38,7.60
2016,11,21,00,39,7.50
2016,11,21,00,40,7.40
2016,11,21,00,41,7.30
2016,11,21,00,42,7.30
2016,11,21,00,43,7.20
2016,11,21,00,44,7.20
2016,11,21,00,45,7.20
2016,11,21,00,46,7.20
2016,11,21,00,47,7.20
2016,11,21,00,48,7.30
2016,11,21,00,49,7.30
2016,11,21,00,50,7.40
2016,11,21,00,51,7.30
2016,11,21,00,52,7.30
2016,11,21,00,53,7.30
2016,11,21,00,54,7.30
2016,11,21,00,55,7.30
2016,11,21,00,56,7.30
2016,11,21,00,57,7.20
2016,11,21,00,58,7.20
2016,11,21,00,59,7.10
2016,11,21,01,00,7.20
2016,11,21,01,01,7.30
2016,11,21,01,02,7.50
2016,11,21,01,03,7.70
2016,11,21,01,04,7.70
2016,11,21,01,05,7.70
2016,11,21,01,06,7.70
2016,11,21,01,07,7.70
2016,11,21,01,08,7.60
2016,11,21,01,09,7.60
2016,11,21,01,10,7.60
2016,11,21,01,11,7.60
2016,11,21,01,12,7.60
2016,11,21,01,13,7.50
2016,11,21,01,14,7.50
2016,11,21,01,15,7.40
2016,11,21,01,16,7.40
2016,11,21,01,17,7.50
2016,11,21,01,18,7.50
2016,11,21,01,19,7.50
2016,11,21,01,20,7.40
2016,11,21,01,21,7.40
2016,11,21,01,22,7.30
2016,11,21,01,23,7.30
2016,11,21,01,24,7.20
2016,11,21,01,25,7.20
2016,11,21,01,26,7.20
2016,11,21,01,27,7.20
2016,11,21,01,28,7.20
2016,11,21,01,29,7.20
2016,11,21,01,30,7.20
2016,11,21,01,31,7.20
2016,11,21,01,32,7.20
2016,11,21,01,33,7.20
2016,11,21,01,34,7.10
2016,11,21,01,35,7.00
2016,11,21,01,36,6.90
2016,11,21,01,37,6.90
2016,11,21,01,38,6.90
2016,11,21,01,39,6.90
2016,11,21,01,40,6.90
2016,11,21,01,41,6.90
2016,11,21,01,42,6.90
2016,11,21,01,43,7.00
2016,11,21,01,44,7.00
2016,11,21,01,45,7.00
2016,11,21,01,46,7.00
2016,11,21,01,47,6.90
2016,11,21,01,48,6.90
2016,11,21,01,49,6.90
2016,11,21,01,50,6.90
2016,11,21,01,51,6.90
2016,11,21,01,52,6.90
2016,11,21,01,53,6.80
2016,11,21,01,54,6.90
2016,11,21,01,55,7.00
2016,11,21,01,56,7.00
2016,11,21,01,57,6.90
2016,11,21,01,58,6.90
2016,11,21,01,59,6.90
2016,11,21,02,00,6.90
2016,11,21,02,01,7.00
2016,11,21,02,02,7.10
2016,11,21,02,03,7.20
2016,11,21,02,04,7.30
2016,11,21,02,05,7.40
2016,11,21,02,06,7.60
2016,11,21,02,07,7.80
2016,11,21,02,08,7.90
2016,11,21,02,09,7.90
2016,11,21,02,10,7.90
2016,11,21,02,11,7.90
2016,11,21,02,12,8.00
2016,11,21,02,13,8.00
2016,11,21,02,14,8.00
2016,11,21,02,15,8.10
2016,11,21,02,16,8.30
2016,11,21,02,17,8.50
2016,11,21,02,18,8.60
2016,11,21,02,19,8.80
2016,11,21,02,20,8.90
2016,11,21,02,21,8.90
2016,11,21,02,22,8.90
2016,11,21,02,23,8.80
2016,11,21,02,24,8.80
2016,11,21,02,25,8.70
2016,11,21,02,26,8.80
2016,11,21,02,27,8.80
2016,11,21,02,28,8.70
2016,11,21,02,29,8.50
2016,11,21,02,30,8.30
2016,11,21,02,31,8.20
2016,11,21,02,32,8.10
2016,11,21,02,33,8.10
2016,11,21,02,34,8.20
2016,11,21,02,35,8.20
2016,11,21,02,36,8.00
2016,11,21,02,37,7.90
2016,11,21,02,38,7.80
2016,11,21,02,39,7.70
2016,11,21,02,40,7.60
2016,11,21,02,41,7.60
2016,11,21,02,42,7.60
2016,11,21,02,43,7.60
2016,11,21,02,44,7.50
2016,11,21,02,45,7.50
2016,11,21,02,46,7.40
2016,11,21,02,47,7.50
2016,11,21,02,48,7.50
2016,11,21,02,49,7.50
2016,11,21,02,50,7.60
2016,11,21,02,51,7.50
2016,11,21,02,52,7.50
2016,11,21,02,53,7.50
2016,11,21,02,54,7.40
2016,11,21,02,55,7.40
2016,11,21,02,56,7.40
2016,11,21,02,57,7.40
2016,11,21,02,58,7.30
2016,11,21,02,59,7.30
2016,11,21,03,00,7.20
2016,11,21,03,01,7.20
2016,11,21,03,02,7.20
2016,11,21,03,03,7.20
2016,11,21,03,04,7.20
2016,11,21,03,05,7.20
2016,11,21,03,06,7.20
2016,11,21,03,07,7.20
2016,11,21,03,08,7.20
2016,11,21,03,09,7.20
2016,11,21,03,10,7.20
2016,11,21,03,11,7.20
2016,11,21,03,12,7.20
2016,11,21,03,13,7.20
2016,11,21,03,14,7.20
2016,11,21,03,15,7.20
2016,11,21,03,16,7.20
2016,11,21,03,17,7.20
2016,11,21,03,18,7.20
2016,11,21,03,19,7.20
2016,11,21,03,20,7.20
2016,11,21,03,21,7.30
2016,11,21,03,22,7.30
2016,11,21,03,23,7.30
2016,11,21,03,24,7.40
2016,11,21,03,25,7.30
2016,11,21,03,26,7.30
2016,11,21,03,27,7.20
2016,11,21,03,28,7.20
2016,11,21,03,29,7.20
2016,11,21,03,30,7.20
2016,11,21,03,31,7.20
2016,11,21,03,32,7.20
2016,11,21,03,33,7.30
2016,11,21,03,34,7.30
2016,11,21,03,35,7.40
2016,11,21,03,36,7.50
2016,11,21,03,37,7.60
2016,11,21,03,38,7.60
2016,11,21,03,39,7.60
2016,11,21,03,40,7.50
2016,11,21,03,41,7.50
2016,11,21,03,42,7.60
2016,11,21,03,43,7.60
2016,11,21,03,44,7.60
2016,11,21,03,45,7.60
2016,11,21,03,46,7.60
2016,11,21,03,47,7.60
2016,11,21,03,48,7.60
2016,11,21,03,49,7.60
2016,11,21,03,50,7.50
2016,11,21,03,51,7.40
2016,11,21,03,52,7.40
2016,11,21,03,53,7.30
2016,11,21,03,54,7.30
2016,11,21,03,55,7.40
2016,11,21,03,56,7.50
2016,11,21,03,57,7.60
2016,11,21,03,58,7.60
2016,11,21,03,59,7.60
2016,11,21,04,00,7.50
2016,11,21,04,01,7.50
2016,11,21,04,02,7.40
2016,11,21,04,03,7.40
2016,11,21,04,04,7.30
2016,11,21,04,05,7.20
2016,11,21,04,06,7.20
2016,11,21,04,07,7.20
2016,11,21,04,08,7.20
2016,11,21,04,09,7.30
2016,11,21,04,10,7.40
2016,11,21,04,11,7.50
2016,11,21,04,12,7.70
2016,11,21,04,13,7.80
2016,11,21,04,14,7.70
2016,11,21,04,15,7.70
2016,11,21,04,16,7.70
2016,11,21,04,17,7.70
2016,11,21,04,18,7.70
2016,11,21,04,19,7.70
2016,11,21,04,20,7.80
2016,11,21,04,21,7.80
2016,11,21,04,22,7.90
2016,11,21,04,23,7.90
2016,11,21,04,24,7.90
2016,11,21,04,25,8.00
2016,11,21,04,26,8.00
2016,11,21,04,27,8.10
2016,11,21,04,28,8.20
2016,11,21,04,29,8.20
2016,11,21,04,30,8.30
2016,11,21,04,31,8.30
2016,11,21,04,32,8.40
2016,11,21,04,33,8.40
2016,11,21,04,34,8.40
2016,11,21,04,35,8.30
2016,11,21,04,36,8.30
2016,11,21,04,37,8.30
2016,11,21,04,38,8.30
2016,11,21,04,39,8.30
2016,11,21,04,40,8.30
2016,11,21,04,41,8.40
2016,11,21,04,42,8.40
2016,11,21,04,43,8.50
2016,11,21,04,44,8.60
2016,11,21,04,45,8.60
2016,11,21,04,46,8.90
2016,11,21,04,47,9.10
2016,11,21,04,48,9.20
2016,11,21,04,49,9.30
2016,11,21,04,50,9.30
2016,11,21,04,51,9.40
2016,11,21,04,52,9.50
2016,11,21,04,53,9.60
2016,11,21,04,54,9.70
2016,11,21,04,55,9.70
2016,11,21,04,56,9.80
2016,11,21,04,57,9.80
2016,11,21,04,58,9.80
2016,11,21,04,59,9.80
2016,11,21,05,00,9.70
2016,11,21,05,01,9.70
2016,11,21,05,02,9.80
2016,11,21,05,03,9.80
2016,11,21,05,04,9.70
2016,11,21,05,05,9.70
2016,11,21,05,06,9.70
2016,11,21,05,07,9.70
2016,11,21,05,08,9.70
2016,11,21,05,09,9.70
2016,11,21,05,10,9.70
2016,11,21,05,11,9.70
2016,11,21,05,12,9.70
2016,11,21,05,13,9.70
2016,11,21,05,14,9.70
2016,11,21,05,15,9.70
2016,11,21,05,16,9.70
2016,11,21,05,17,9.70
2016,11,21,05,18,9.60
2016,11,21,05,19,9.60
2016,11,21,05,20,9.60
2016,11,21,05,21,9.60
2016,11,21,05,22,9.60
2016,11,21,05,23,9.60
2016,11,21,05,24,9.60
2016,11,21,05,25,9.50
2016,11,21,05,26,9.50
2016,11,21,05,27,9.40
2016,11,21,05,28,9.40
2016,11,21,05,29,9.40
2016,11,21,05,30,9.40
2016,11,21,05,31,9.40
2016,11,21,05,32,9.40
2016,11,21,05,33,9.40
2016,11,21,05,34,9.40
2016,11,21,05,35,9.30
2016,11,21,05,36,9.30
2016,11,21,05,37,9.20
2016,11,21,05,38,9.20
2016,11,21,05,39,9.20
2016,11,21,05,40,9.20
2016,11,21,05,41,9.20
2016,11,21,05,42,9.20
2016,11,21,05,43,9.20
2016,11,21,05,44,9.10
2016,11,21,05,45,9.10
2016,11,21,05,46,9.10
2016,11,21,05,47,9.00
2016,11,21,05,48,8.90
2016,11,21,05,49,8.90
2016,11,21,05,50,8.90
2016,11,21,05,51,8.90
2016,11,21,05,52,9.00
2016,11,21,05,53,9.00
2016,11,21,05,54,9.10
2016,11,21,05,55,9.30
2016,11,21,05,56,9.30
2016,11,21,05,57,9.40
2016,11,21,05,58,9.40
2016,11,21,05,59,9.50
2016,11,21,06,00,9.50
2016,11,21,06,01,9.50
2016,11,21,06,02,9.50
2016,11,21,06,03,9.40
2016,11,21,06,04,9.40
2016,11,21,06,05,9.50
2016,11,21,06,06,9.50
2016,11,21,06,07,9.40
2016,11,21,06,08,9.30
2016,11,21,06,09,9.20
2016,11,21,06,10,9.20
2016,11,21,06,11,9.20
2016,11,21,06,12,9.10
2016,11,21,06,13,9.20
2016,11,21,06,14,9.20
2016,11,21,06,15,9.20
2016,11,21,06,16,9.20
2016,11,21,06,17,9.30
2016,11,21,06,18,9.30
2016,11,21,06,19,9.30
2016,11,21,06,20,9.30
2016,11,21,06,21,9.30
2016,11,21,06,22,9.30
2016,11,21,06,23,9.30
2016,11,21,06,24,9.30
2016,11,21,06,25,9.30
2016,11,21,06,26,9.30
2016,11,21,06,27,9.30
2016,11,21,06,28,9.30
2016,11,21,06,29,9.30
2016,11,21,06,30,9.40
2016,11,21,06,31,9.40
2016,11,21,06,32,9.40
2016,11,21,06,33,9.40
2016,11,21,06,34,9.40
2016,11,21,06,35,9.40
2016,11,21,06,36,9.30
2016,11,21,06,37,9.30
2016,11,21,06,38,9.20
2016,11,21,06,39,9.20
2016,11,21,06,40,9.20
2016,11,21,06,41,9.10
2016,11,21,06,42,9.10
2016,11,21,06,43,9.10
2016,11,21,06,44,9.00
2016,11,21,06,45,8.90
2016,11,21,06,46,8.70
2016,11,21,06,47,8.60
2016,11,21,06,48,8.60
2016,11,21,06,49,8.60
2016,11,21,06,50,8.70
2016,11,21,06,51,8.80
2016,11,21,06,52,8.80
2016,11,21,06,53,8.80
2016,11,21,06,54,8.90
2016,11,21,06,55,8.80
2016,11,21,06,56,8.70
2016,11,21,06,57,8.60
2016,11,21,06,58,8.70
2016,11,21,06,59,8.80
2016,11,21,07,00,8.80
2016,11,21,07,01,8.90
2016,11,21,07,02,9.00
2016,11,21,07,03,9.10
2016,11,21,07,04,9.10
2016,11,21,07,05,9.20
2016,11,21,07,06,9.20
2016,11,21,07,07,9.30
2016,11,21,07,08,9.30
2016,11,21,07,09,9.30
2016,11,21,07,10,9.30
2016,11,21,07,11,9.30
2016,11,21,07,12,9.30
2016,11,21,07,13,9.30
2016,11,21,07,14,9.30
2016,11,21,07,15,9.30
2016,11,21,07,16,9.30
2016,11,21,07,17,9.30
2016,11,21,07,18,9.30
2016,11,21,07,19,9.40
2016,11,21,07,20,9.40
2016,11,21,07,21,9.50
2016,11,21,07,22,9.50
2016,11,21,07,23,9.50
2016,11,21,07,24,9.50
2016,11,21,07,25,9.40
2016,11,21,07,26,9.40
2016,11,21,07,27,9.50
2016,11,21,07,28,9.50
2016,11,21,07,29,9.50
2016,11,21,07,30,9.60
2016,11,21,07,31,9.60
2016,11,21,07,32,9.60
2016,11,21,07,33,9.60
2016,11,21,07,34,9.60
2016,11,21,07,35,9.50
2016,11,21,07,36,9.50
2016,11,21,07,37,9.50
2016,11,21,07,38,9.40
2016,11,21,07,39,9.40
2016,11,21,07,40,9.40
2016,11,21,07,41,9.40
2016,11,21,07,42,9.40
2016,11,21,07,43,9.40
2016,11,21,07,44,9.40
2016,11,21,07,45,9.30
2016,11,21,07,46,9.30
2016,11,21,07,47,9.30
2016,11,21,07,48,9.30
2016,11,21,07,49,9.30
2016,11,21,07,50,9.30
2016,11,21,07,51,9.30
2016,11,21,07,52,9.30
2016,11,21,07,53,9.30
2016,11,21,07,54,9.30
2016,11,21,07,55,9.20
2016,11,21,07,56,9.20
2016,11,21,07,57,9.20
2016,11,21,07,58,9.20
2016,11,21,07,59,9.20
2016,11,21,08,00,9.20
2016,11,21,08,01,9.20
2016,11,21,08,02,9.20
2016,11,21,08,03,9.20
2016,11,21,08,04,9.10
2016,11,21,08,05,9.10
2016,11,21,08,06,9.10
2016,11,21,08,07,9.00
2016,11,21,08,08,9.00
2016,11,21,08,09,8.90
2016,11,21,08,10,8.90
2016,11,21,08,11,8.90
2016,11,21,08,12,8.80
2016,11,21,08,13,8.70
2016,11,21,08,14,8.70
2016,11,21,08,15,8.60
2016,11,21,08,16,8.60
2016,11,21,08,17,8.60
2016,11,21,08,18,8.50
2016,11,21,08,19,8.50
2016,11,21,08,20,8.50
2016,11,21,08,21,8.50
2016,11,21,08,22,8.40
2016,11,21,08,23,8.40
2016,11,21,08,24,8.40
2016,11,21,08,25,8.30
2016,11,21,08,26,8.30
2016,11,21,08,27,8.30
2016,11,21,08,28,8.30
2016,11,21,08,29,8.20
2016,11,21,08,30,8.20
2016,11,21,08,31,8.20
2016,11,21,08,32,8.20
2016,11,21,08,33,8.20
2016,11,21,08,34,8.10
2016,11,21,08,35,8.10
2016,11,21,08,36,8.10
2016,11,21,08,37,8.10
2016,11,21,08,38,8.00
2016,11,21,08,39,8.00
2016,11,21,08,40,8.10
2016,11,21,08,41,8.10
2016,11,21,08,42,8.10
2016,11,21,08,43,8.10
2016,11,21,08,44,8.00
2016,11,21,08,45,8.00
2016,11,21,08,46,8.00
2016,11,21,08,47,8.00
2016,11,21,08,48,8.00
2016,11,21,08,49,8.00
2016,11,21,08,50,7.90
2016,11,21,08,51,7.90
2016,11,21,08,52,7.80
2016,11,21,08,53,7.80
2016,11,21,08,54,7.80
2016,11,21,08,55,7.80
2016,11,21,08,56,7.80
2016,11,21,08,57,7.80
2016,11,21,08,58,7.80
2016,11,21,08,59,7.70
2016,11,21,09,00,7.70
2016,11,21,09,01,7.70
2016,11,21,09,02,7.70
2016,11,21,09,03,7.80
2016,11,21,09,04,7.90
2016,11,21,09,05,7.90
2016,11,21,09,06,7.90
2016,11,21,09,07,8.00
2016,11,21,09,08,8.00
2016,11,21,09,09,8.10
2016,11,21,09,10,8.20
2016,11,21,09,11,8.20
2016,11,21,09,12,8.10
2016,11,21,09,13,8.10
2016,11,21,09,14,8.20
2016,11,21,09,15,8.20
2016,11,21,09,16,8.20
2016,11,21,09,17,8.20
2016,11,21,09,18,8.30
2016,11,21,09,19,8.30
2016,11,21,09,20,8.30
2016,11,21,09,21,8.30
2016,11,21,09,22,8.30
2016,11,21,09,23,8.30
2016,11,21,09,24,8.40
2016,11,21,09,25,8.40
2016,11,21,09,26,8.50
2016,11,21,09,27,8.60
2016,11,21,09,28,8.60
2016,11,21,09,29,8.60
2016,11,21,09,30,8.70
2016,11,21,09,31,8.70
2016,11,21,09,32,8.70
2016,11,21,09,33,8.80
2016,11,21,09,34,8.80
2016,11,21,09,35,8.80
2016,11,21,09,36,8.90
2016,11,21,09,37,8.90
2016,11,21,09,38,8.90
2016,11,21,09,39,8.90
2016,11,21,09,40,8.90
2016,11,21,09,41,9.00
2016,11,21,09,42,9.00
2016,11,21,09,43,9.00
2016,11,21,09,44,9.10
2016,11,21,09,45,9.10
2016,11,21,09,46,9.20
2016,11,21,09,47,9.20
2016,11,21,09,48,9.20
2016,11,21,09,49,9.20
2016,11,21,09,50,9.20
2016,11,21,09,51,9.30
2016,11,21,09,52,9.30
2016,11,21,09,53,9.30
2016,11,21,09,54,9.40
2016,11,21,09,55,9.50
2016,11,21,09,56,9.60
2016,11,21,09,57,9.60
2016,11,21,09,58,9.60
2016,11,21,09,59,9.60
2016,11,21,10,00,9.70
2016,11,21,10,01,9.70
2016,11,21,10,02,9.70
2016,11,21,10,03,9.80
2016,11,21,10,04,9.80
2016,11,21,10,05,9.80
2016,11,21,10,06,9.90
2016,11,21,10,07,9.90
2016,11,21,10,08,9.90
2016,11,21,10,09,10.00
2016,11,21,10,10,10.10
2016,11,21,10,11,10.10
2016,11,21,10,12,10.10
2016,11,21,10,13,10.10
2016,11,21,10,14,10.10
2016,11,21,10,15,10.10
2016,11,21,10,16,10.10
2016,11,21,10,17,10.10
2016,11,21,10,18,10.10
2016,11,21,10,19,10.00
2016,11,21,10,20,10.00
2016,11,21,10,21,10.00
2016,11,21,10,22,10.00
2016,11,21,10,23,10.00
2016,11,21,10,24,10.00
2016,11,21,10,25,10.10
2016,11,21,10,26,10.10
2016,11,21,10,27,10.20
2016,11,21,10,28,10.30
2016,11,21,10,29,10.40
2016,11,21,10,30,10.50
2016,11,21,10,31,10.60
2016,11,21,10,32,10.70
2016,11,21,10,33,10.80
2016,11,21,10,34,10.80
2016,11,21,10,35,10.80
2016,11,21,10,36,10.80
2016,11,21,10,37,10.90
2016,11,21,10,38,10.90
2016,11,21,10,39,10.90
2016,11,21,10,40,10.90
2016,11,21,10,41,10.90
2016,11,21,10,42,11.00
2016,11,21,10,43,11.00
2016,11,21,10,44,11.10
2016,11,21,10,45,11.10
2016,11,21,10,46,11.20
2016,11,21,10,47,11.20
2016,11,21,10,48,11.20
2016,11,21,10,49,11.20
2016,11,21,10,50,11.20
2016,11,21,10,51,11.20
2016,11,21,10,52,11.20
2016,11,21,10,53,11.20
2016,11,21,10,54,11.20
2016,11,21,10,55,11.20
2016,11,21,10,56,11.20
2016,11,21,10,57,11.10
2016,11,21,10,58,11.10
2016,11,21,10,59,11.10
2016,11,21,11,00,11.10
2016,11,21,11,01,11.10
2016,11,21,11,02,11.10
2016,11,21,11,03,11.10
2016,11,21,11,04,11.00
2016,11,21,11,05,11.00
2016,11,21,11,06,11.00
2016,11,21,11,07,11.00
2016,11,21,11,08,11.10
2016,11,21,11,09,11.10
2016,11,21,11,10,11.20
2016,11,21,11,11,11.20
2016,11,21,11,12,11.20
2016,11,21,11,13,11.20
2016,11,21,11,14,11.10
2016,11,21,11,15,11.10
2016,11,21,11,16,11.10
2016,11,21,11,17,11.10
2016,11,21,11,18,11.20
2016,11,21,11,19,11.20
2016,11,21,11,20,11.20
2016,11,21,11,21,11.20
2016,11,21,11,22,11.30
2016,11,21,11,23,11.30
2016,11,21,11,24,11.30
2016,11,21,11,25,11.30
2016,11,21,11,26,11.30
2016,11,21,11,27,11.30
2016,11,21,11,28,11.40
2016,11,21,11,29,11.40
2016,11,21,11,30,11.40
2016,11,21,11,31,11.40
2016,11,21,11,32,11.40
2016,11,21,11,33,11.50
2016,11,21,11,34,11.60
2016,11,21,11,35,11.50
2016,11,21,11,36,11.50
2016,11,21,11,37,11.40
2016,11,21,11,38,11.40
2016,11,21,11,39,11.40
2016,11,21,11,40,11.40
2016,11,21,11,41,11.30
2016,11,21,11,42,11.30
2016,11,21,11,43,11.30
2016,11,21,11,44,11.20
2016,11,21,11,45,11.20
2016,11,21,11,46,11.20
2016,11,21,11,47,11.20
2016,11,21,11,48,11.30
2016,11,21,11,49,11.30
2016,11,21,11,50,11.30
2016,11,21,11,51,11.20
2016,11,21,11,52,11.20
2016,11,21,11,53,11.20
2016,11,21,11,54,11.10
2016,11,21,11,55,11.10
2016,11,21,11,56,11.00
2016,11,21,11,57,11.00
2016,11,21,11,58,11.00
2016,11,21,11,59,11.00
2016,11,21,12,00,11.10
2016,11,21,12,01,11.10
2016,11,21,12,02,11.10
2016,11,21,12,03,11.20
2016,11,21,12,04,11.20
2016,11,21,12,05,11.20
2016,11,21,12,06,11.20
2016,11,21,12,07,11.30
2016,11,21,12,08,11.30
2016,11,21,12,09,11.30
2016,11,21,12,10,11.30
2016,11,21,12,11,11.30
2016,11,21,12,12,11.30
2016,11,21,12,13,11.30
2016,11,21,12,14,11.40
2016,11,21,12,15,11.40
2016,11,21,12,16,11.50
2016,11,21,12,17,11.60
2016,11,21,12,18,11.60
2016,11,21,12,19,11.60
2016,11,21,12,20,11.60
2016,11,21,12,21,11.60
2016,11,21,12,22,11.50
2016,11,21,12,23,11.50
2016,11,21,12,24,11.50
2016,11,21,12,25,11.50
2016,11,21,12,26,11.60
2016,11,21,12,27,11.60
2016,11,21,12,28,11.50
2016,11,21,12,29,11.50
2016,11,21,12,30,11.50
2016,11,21,12,31,11.50
2016,11,21,12,32,11.50
2016,11,21,12,33,11.50
2016,11,21,12,34,11.60
2016,11,21,12,35,11.80
2016,11,21,12,36,11.90
2016,11,21,12,37,11.90
2016,11,21,12,38,11.90
2016,11,21,12,39,11.80
2016,11,21,12,40,11.80
2016,11,21,12,41,11.80
2016,11,21,12,42,11.80
2016,11,21,12,43,11.90
2016,11,21,12,44,11.80
2016,11,21,12,45,11.80
2016,11,21,12,46,11.80
2016,11,21,12,47,11.80
2016,11,21,12,48,11.90
2016,11,21,12,49,11.90
2016,11,21,12,50,12.00
2016,11,21,12,51,12.00
2016,11,21,12,52,11.90
2016,11,21,12,53,11.80
2016,11,21,12,54,11.70
2016,11,21,12,55,11.70
2016,11,21,12,56,11.70
2016,11,21,12,57,11.70
2016,11,21,12,58,11.80
2016,11,21,12,59,11.80
2016,11,21,13,00,11.80
2016,11,21,13,01,11.90
2016,11,21,13,02,11.90
2016,11,21,13,03,11.90
2016,11,21,13,04,11.90
2016,11,21,13,05,11.90
2016,11,21,13,06,12.00
2016,11,21,13,07,12.00
2016,11,21,13,08,12.10
2016,11,21,13,09,12.10
2016,11,21,13,10,12.10
2016,11,21,13,11,12.10
2016,11,21,13,12,12.10
2016,11,21,13,13,12.10
2016,11,21,13,14,12.10
2016,11,21,13,15,12.10
2016,11,21,13,16,12.20
2016,11,21,13,17,12.20
2016,11,21,13,18,12.20
2016,11,21,13,19,12.20
2016,11,21,13,20,12.20
2016,11,21,13,21,12.20
2016,11,21,13,22,12.30
2016,11,21,13,23,12.30
2016,11,21,13,24,12.30
2016,11,21,13,25,12.20
2016,11,21,13,26,12.20
2016,11,21,13,27,12.20
2016,11,21,13,28,12.20
2016,11,21,13,29,12.20
2016,11,21,13,30,12.20
2016,11,21,13,31,12.10
2016,11,21,13,32,12.10
2016,11,21,13,33,12.10
2016,11,21,13,34,12.10
2016,11,21,13,35,12.00
2016,11,21,13,36,12.00
2016,11,21,13,37,12.00
2016,11,21,13,38,12.00
2016,11,21,13,39,12.10
2016,11,21,13,40,12.10
2016,11,21,13,41,12.10
2016,11,21,13,42,12.10
2016,11,21,13,43,12.10
2016,11,21,13,44,12.10
2016,11,21,13,45,12.10
2016,11,21,13,46,12.20
2016,11,21,13,47,12.10
2016,11,21,13,48,12.10
2016,11,21,13,49,12.10
2016,11,21,13,50,12.10
2016,11,21,13,51,12.10
2016,11,21,13,52,12.10
2016,11,21,13,53,12.00
2016,11,21,13,54,12.00
2016,11,21,13,55,11.90
2016,11,21,13,56,11.90
2016,11,21,13,57,11.90
2016,11,21,13,58,11.90
2016,11,21,13,59,11.90
2016,11,21,14,00,11.90
2016,11,21,14,01,12.00
2016,11,21,14,02,11.90
2016,11,21,14,03,12.00
2016,11,21,14,04,12.00
2016,11,21,14,05,12.00
2016,11,21,14,06,12.10
2016,11,21,14,07,12.10
2016,11,21,14,08,12.10
2016,11,21,14,09,12.10
2016,11,21,14,10,12.10
2016,11,21,14,11,12.20
2016,11,21,14,12,12.20
2016,11,21,14,13,12.10
2016,11,21,14,14,12.10
2016,11,21,14,15,12.00
2016,11,21,14,16,11.90
2016,11,21,14,17,11.80
2016,11,21,14,18,11.80
2016,11,21,14,19,11.70
2016,11,21,14,20,11.70
2016,11,21,14,21,11.60
2016,11,21,14,22,11.50
2016,11,21,14,23,11.50
2016,11,21,14,24,11.40
2016,11,21,14,25,11.40
2016,11,21,14,26,11.30
2016,11,21,14,27,11.30
2016,11,21,14,28,11.30
2016,11,21,14,29,11.30
2016,11,21,14,30,11.20
2016,11,21,14,31,11.20
2016,11,21,14,32,11.10
2016,11,21,14,33,11.10
2016,11,21,14,34,11.10
2016,11,21,14,35,11.00
2016,11,21,14,36,10.90
2016,11,21,14,37,10.70
2016,11,21,14,38,10.60
2016,11,21,14,39,10.50
2016,11,21,14,40,10.40
2016,11,21,14,41,10.40
2016,11,21,14,42,10.40
2016,11,21,14,43,10.40
2016,11,21,14,44,10.30
2016,11,21,14,45,10.30
2016,11,21,14,46,10.30
2016,11,21,14,47,10.30
2016,11,21,14,48,10.20
2016,11,21,14,49,10.20
2016,11,21,14,50,10.10
2016,11,21,14,51,10.00
2016,11,21,14,52,9.90
2016,11,21,14,53,9.90
2016,11,21,14,54,9.80
2016,11,21,14,55,9.70
2016,11,21,14,56,9.60
2016,11,21,14,57,9.60
2016,11,21,14,58,9.50
2016,11,21,14,59,9.40
2016,11,21,15,00,9.50
2016,11,21,15,01,9.50
2016,11,21,15,02,9.40
2016,11,21,15,03,9.40
2016,11,21,15,04,9.40
2016,11,21,15,05,9.50
2016,11,21,15,06,9.60
2016,11,21,15,07,9.60
2016,11,21,15,08,9.60
2016,11,21,15,09,9.60
2016,11,21,15,10,9.50
2016,11,21,15,11,9.40
2016,11,21,15,12,9.30
2016,11,21,15,13,9.30
2016,11,21,15,14,9.30
2016,11,21,15,15,9.30
2016,11,21,15,16,9.30
2016,11,21,15,17,9.30
2016,11,21,15,18,9.30
2016,11,21,15,19,9.20
2016,11,21,15,20,9.20
2016,11,21,15,21,9.20
2016,11,21,15,22,9.20
2016,11,21,15,23,9.20
2016,11,21,15,24,9.30
2016,11,21,15,25,9.20
2016,11,21,15,26,9.20
2016,11,21,15,27,9.10
2016,11,21,15,28,9.10
2016,11,21,15,29,9.10
2016,11,21,15,30,9.00
2016,11,21,15,31,9.00
2016,11,21,15,32,9.00
2016,11,21,15,33,9.00
2016,11,21,15,34,9.00
2016,11,21,15,35,9.00
2016,11,21,15,36,9.00
2016,11,21,15,37,9.00
2016,11,21,15,38,9.10
2016,11,21,15,39,9.10
2016,11,21,15,40,9.10
2016,11,21,15,41,9.10
2016,11,21,15,42,9.10
2016,11,21,15,43,9.10
2016,11,21,15,44,9.10
2016,11,21,15,45,9.00
2016,11,21,15,46,9.00
2016,11,21,15,47,8.80
2016,11,21,15,48,8.70
2016,11,21,15,49,8.60
2016,11,21,15,50,8.50
2016,11,21,15,51,8.50
2016,11,21,15,52,8.40
2016,11,21,15,53,8.50
2016,11,21,15,54,8.50
2016,11,21,15,55,8.50
2016,11,21,15,56,8.60
2016,11,21,15,57,8.70
2016,11,21,15,58,8.70
2016,11,21,15,59,8.80
2016,11,21,16,00,8.70
2016,11,21,16,01,8.60
2016,11,21,16,02,8.40
2016,11,21,16,03,8.30
2016,11,21,16,04,8.20
2016,11,21,16,05,8.00
2016,11,21,16,06,8.00
2016,11,21,16,07,7.90
2016,11,21,16,08,7.80
2016,11,21,16,09,7.80
2016,11,21,16,10,7.80
2016,11,21,16,11,7.80
2016,11,21,16,12,7.80
2016,11,21,16,13,7.80
2016,11,21,16,14,7.80
2016,11,21,16,15,7.80
2016,11,21,16,16,7.80
2016,11,21,16,17,7.80
2016,11,21,16,18,7.90
2016,11,21,16,19,7.90
2016,11,21,16,20,7.90
2016,11,21,16,21,8.00
2016,11,21,16,22,8.10
2016,11,21,16,23,8.20
2016,11,21,16,24,8.30
2016,11,21,16,25,8.30
2016,11,21,16,26,8.40
2016,11,21,16,27,8.40
2016,11,21,16,28,8.30
2016,11,21,16,29,8.30
2016,11,21,16,30,8.30
2016,11,21,16,31,8.30
2016,11,21,16,32,8.30
2016,11,21,16,33,8.30
2016,11,21,16,34,8.30
2016,11,21,16,35,8.30
2016,11,21,16,36,8.30
2016,11,21,16,37,8.30
2016,11,21,16,38,8.30
2016,11,21,16,39,8.30
2016,11,21,16,40,8.30
2016,11,21,16,41,8.30
2016,11,21,16,42,8.30
2016,11,21,16,43,8.30
2016,11,21,16,44,8.30
2016,11,21,16,45,8.40
2016,11,21,16,46,8.40
2016,11,21,16,47,8.50
2016,11,21,16,48,8.60
2016,11,21,16,49,8.60
2016,11,21,16,50,8.70
2016,11,21,16,51,8.70
2016,11,21,16,52,8.60
2016,11,21,16,53,8.60
2016,11,21,16,54,8.60
2016,11,21,16,55,8.50
2016,11,21,16,56,8.40
2016,11,21,16,57,8.40
2016,11,21,16,58,8.30
2016,11,21,16,59,8.30
2016,11,21,17,00,8.20
2016,11,21,17,01,8.20
2016,11,21,17,02,8.20
2016,11,21,17,03,8.10
2016,11,21,17,04,8.10
2016,11,21,17,05,8.10
2016,11,21,17,06,8.10
2016,11,21,17,07,8.10
2016,11,21,17,08,8.10
2016,11,21,17,09,8.10
2016,11,21,17,10,8.00
2016,11,21,17,11,7.90
2016,11,21,17,12,7.90
2016,11,21,17,13,7.90
2016,11,21,17,14,8.00
2016,11,21,17,15,8.00
2016,11,21,17,16,8.10
2016,11,21,17,17,8.10
2016,11,21,17,18,8.20
2016,11,21,17,19,8.20
2016,11,21,17,20,8.20
2016,11,21,17,21,8.20
2016,11,21,17,22,8.20
2016,11,21,17,23,8.20
2016,11,21,17,24,8.20
2016,11,21,17,25,8.10
2016,11,21,17,26,8.10
2016,11,21,17,27,8.10
2016,11,21,17,28,8.00
2016,11,21,17,29,8.00
2016,11,21,17,30,8.00
2016,11,21,17,31,8.00
2016,11,21,17,32,7.90
2016,11,21,17,33,7.90
2016,11,21,17,34,7.90
2016,11,21,17,35,7.80
2016,11,21,17,36,7.80
2016,11,21,17,37,7.80
2016,11,21,17,38,7.80
2016,11,21,17,39,7.80
2016,11,21,17,40,7.70
2016,11,21,17,41,7.70
2016,11,21,17,42,7.60
2016,11,21,17,43,7.60
2016,11,21,17,44,7.50
2016,11,21,17,45,7.50
2016,11,21,17,46,7.50
2016,11,21,17,47,7.60
2016,11,21,17,48,7.70
2016,11,21,17,49,7.70
2016,11,21,17,50,7.80
2016,11,21,17,51,7.90
2016,11,21,17,52,7.90
2016,11,21,17,53,7.80